Regional Weather Roundup
Issued by NWS

Home | Current Version | Previous Version | Graphics & Text | Print | Product List | Glossary On
Versions: 1 2 3 4 5 6 7 8 9 10 11 12 13 14 15 16 17 18 19 20 21 22 23 24 25 26 27 28 29 30 31 32 33 34 35 36 37 38 39 40 41 42 43 44 45 46 47 48 49 50
943
ASUS43 KLMK 220702
RWRKY
KENTUCKY REGIONAL WEATHER ROUNDUP
NATIONAL WEATHER SERVICE LOUISVILLE KY
300 AM EDT TUE AUG 22 2017

NOTE "FAIR" INDICATES FEW OR NO CLOUDS BELOW 12,000 FEET
WITH NO SIGNIFICANT WEATHER AND/OR OBSTRUCTIONS TO VISIBILITY.

KYZ001>023-026-027-061>063-070>075-220800-
WESTERN AND SOUTH CENTRAL KENTUCKY

CITY           SKY/WX    TMP DP  RH WIND       PRES   REMARKS
PADUCAH        CLEAR     79  72  79 SW6       30.02F
HENDERSON      NOT AVBL
OWENSBORO      CLEAR     74  71  91 S6        30.02F
HOPKINSVILLE   CLEAR     78  71  79 S6        30.05F
BOWLING GREEN  CLEAR     78  70  76 SW6       30.05F
GLASGOW        CLEAR     73  67  83 CALM      30.07F
$$

KYZ024-025-028>034-038-045-046-053-220800-
NORTH CENTRAL KENTUCKY

CITY           SKY/WX    TMP DP  RH WIND       PRES   REMARKS
LOUISVILLE/SDF MOCLDY    81  68  64 S9        30.02F
LOUISVILLE/LOU CLEAR     77  70  79 S6        30.03F
FORT KNOX      PTCLDY    74  68  80 SW6       30.03F
$$

KYZ035>037-039>044-047>052-055>060-089>105-220800-
NORTHEAST KENTUCKY

CITY           SKY/WX    TMP DP  RH WIND       PRES   REMARKS
LEXINGTON      CLEAR     74  67  78 S7        30.06F
COVINGTON      CLOUDY    75  70  84 S7        30.03F
FRANKFORT      CLEAR     75  67  76 S6        30.04F
$$

KYZ054-064>069-076>088-106>120-220800-
SOUTHEAST KENTUCKY

CITY           SKY/WX    TMP DP  RH WIND       PRES   REMARKS
JACKSON        CLOUDY    72  69  90 CALM      30.11F
LONDON         PTCLDY    71  68  90 CALM      30.11F
SOMERSET       NOT AVBL
MIDDLESBORO    CLEAR     67  67 100 CALM      30.14F
MONTICELLO     SUNNY     69  68  96 W10       30.11F
$$





USA.gov is the U.S. government's official web portal to all federal, state and local government web resources and services.